Location: Bijele Vode
(45.2833°N, 16.2000°E)
Time: 00:48:09
(UTC+00:00)

Okean 1 Rocket - Pass Details

Date: 18 September 2020
Orbit: 605 x 635 km, 82.5° (Epoch: 26 October)

Event Time Altitude Azimuth Distance (km) Brightness Sun altitude
Exits shadow 19:51:18 46° 288° (WNW) 854 4.0 -29.0°
Drops below altitude 10° 19:55:33 10° 357° (N) 2,033 6.1 -29.6°
Sets 19:57:54 0° 4° (N) 2,946 7.0 -29.9°
